Location: Agua Fría
(10.3667°N, 67.1333°W)
Time: 02:25:43
(UTC+00:00)

Daily predictions for brighter satellites

Satellite Brightness Start Highest point End
(mag) Time Altitude Azimuth Time Altitude Azimuth Time Altitude Azimuth
Cosmos 1805 3.3 00:01:05 10° N 00:04:36 46° E 00:05:14 41° ESE
Cosmos 1697 Rocket 3.5 00:00:19 10° NNE 00:05:10 30° ENE 00:06:31 27° E
NATO 3D Rocket 4.0 00:02:14 10° W 00:06:47 50° NNW 00:11:38 11° ENE
DELTA 2 DEB (DPAF) 3.8 00:04:52 10° NNE 00:09:03 76° ESE 00:13:10 10° S
Cosmos 44 Rocket 3.0 00:04:33 10° NNW 00:09:14 81° ENE 00:11:18 33° SSE
SWIFT 3.9 00:08:20 10° SSW 00:10:16 19° S 00:10:16 19° S
SPOT 1/Viking Rocket 3.5 00:09:07 25° SSE 00:12:04 68° ENE 00:17:08 10° N
Cosmos 1805 Rocket 4.2 00:09:31 10° NNW 00:13:50 54° W 00:17:56 11° S
Cosmos 1733 4.4 00:10:54 10° NNW 00:14:10 38° W 00:17:02 13° SSW
SL-8 R/B 3.7 00:09:30 10° NNW 00:14:12 63° NE 00:15:32 43° ESE
Ariane H10+ 4.2 00:07:01 10° SW 00:14:17 41° SSE 00:22:07 26° ESE
Cosmos 1674 3.2 00:17:37 37° NE 00:17:37 37° NE 00:20:00 10° NNE
Cosmos 1980 Rocket 3.9 00:19:24 10° NNE 00:22:11 17° ENE 00:22:11 17° ENE
FALCON 9 R/B 3.7 00:19:53 10° NNW 00:24:15 35° NE 00:28:29 25° E
Cosmos 1666 Rocket 3.9 00:20:45 10° N 00:24:33 46° ENE 00:24:33 46° ENE
ARIANE 5 R/B 3.4 00:13:27 10° W 00:25:18 34° SSW 00:26:13 31° S
Haruka 4.4 00:12:06 10° WNW 00:28:47 47° SW 00:31:16 30° S
Cosmos 2026 Rocket 4.4 00:22:37 10° SSW 00:28:49 64° W 00:34:55 10° N
Resurs 01 Rocket 2.0 00:31:19 48° NE 00:31:19 48° NE 00:35:07 10° N
FUSE 4.0 00:28:11 10° SW 00:33:18 56° SSE 00:33:18 56° SSE
GPS 2-12 Rocket1 4.4 00:29:28 10° WNW 00:33:31 34° N 00:35:25 24° NE
Cosmos 2360 4.3 00:29:13 10° NNW 00:34:55 77° WSW 00:37:02 40° S
ATLAS CENTAUR R/B 4.0 00:24:01 10° NNW 00:36:45 84° ENE 00:40:38 40° SE
SJ-6B 4.3 00:36:42 24° SW 00:37:53 29° W 00:41:04 10° NW
Ariane 3 Deb 3.7 00:38:54 10° WSW 00:40:30 26° WSW 00:40:30 26° WSW
CZ-4B R/B 3.0 00:41:06 64° SSE 00:41:58 85° ENE 00:47:14 10° N
GPS 2-15 Rocket1 3.1 00:39:25 10° WSW 00:44:10 84° NW 00:44:10 84° NW
CZ-4 R/B 2.8 00:46:35 30° WSW 00:47:16 32° W 00:50:47 10° NW
Centaur D-1AR AC-39 3.3 00:53:07 10° WNW 00:56:42 38° N 01:01:10 18° ENE
Lacrosse 5 rocket 2.7 00:53:21 10° NNW 00:55:47 35° NNW 00:55:47 35° NNW
MOS 1-B Rocket 4.1 01:04:12 67° S 01:05:12 84° WSW 01:11:21 10° NNW
Centaur D AC-29 4.5 01:02:20 10° NW 01:08:17 33° NNE 10:46:29 10° SE
USA 59 Rocket 3.9 01:12:27 10° WSW 01:14:26 11° WSW 01:16:34 10° SW
VEP-3 4.0 01:11:47 10° W 01:16:25 26° SW 01:16:25 26° SW
Okean O Rocket 4.2 01:40:18 18° WNW 01:40:18 18° WNW 01:41:48 10° NW
Cosmos 1980 Rocket 4.4 02:01:47 10° NW 02:03:57 21° NW 02:03:57 21° NW
SL-16 R/B 4.5 06:43:02 23° ENE 06:43:08 23° ENE 06:47:50 10° NNE
Lacrosse 5 4.0 07:23:06 21° E 07:23:06 21° E 07:25:30 10° ENE
CZ-2C R/B 4.1 07:28:15 10° NNE 07:30:32 28° NE 07:30:32 28° NE
Gbstr 26 Del rocket 4.2 07:52:26 52° NNW 07:52:26 52° NNW 07:57:54 10° NNE
PAYLOAD A 4.2 07:48:49 10° NNE 07:53:37 72° NE 07:53:37 72° NE
Iridium 4 Rocket 4.0 07:51:22 10° N 07:54:57 52° N 07:54:57 52° N
Cosmos 1943 Rocket 4.1 07:53:38 16° SE 07:56:30 24° ESE 08:00:57 10° NE
ARIANE 5 R/B 4.3 07:58:05 38° SSE 07:58:05 38° SSE 08:14:17 10° E
Cosmos 1758 Rocket 4.2 08:07:08 50° N 08:07:08 50° N 08:10:26 10° N
GPS 2-17 Rocket1 4.1 08:08:05 37° SE 08:08:05 37° SE 08:11:39 10° E
Aurora 2 Rocket 4.3 08:08:15 28° NW 08:09:32 31° N 08:15:28 10° NE
Thor Agena Rocket 3.4 08:05:39 10° N 08:10:53 79° WNW 08:10:58 78° W
Skynet4D Del rocket 4.4 08:09:46 53° SW 08:11:59 81° SSE 08:20:22 10° ENE
Cosmos 1666 4.0 08:14:02 32° E 08:14:03 32° E 08:17:08 10° NNE
Cosmos 2058 Rocket 3.8 08:13:09 10° N 08:16:07 41° NNW 08:16:07 41° NNW
Cosmos 2278 Rocket 2.1 08:21:15 51° SSW 08:22:45 87° WNW 08:28:25 10° NNE
Ariane H10-3 3.2 08:26:51 18° SSE 08:26:51 18° SSE 08:28:04 10° SE
SL-16 R/B 3.5 08:28:07 28° WNW 08:28:07 28° WNW 08:31:53 10° NW
Cosmos 1500 3.3 08:29:08 56° N 08:29:08 56° N 08:31:54 10° N
ARIANE 5 R/B 4.4 08:23:40 30° WSW 08:28:57 37° SSW 08:35:23 10° SE
Ariane H10-3 4.3 08:05:36 10° W 08:30:43 40° SSW 08:35:25 10° SE
SWIFT 3.4 08:35:16 23° NW 08:37:11 38° NNE 08:40:54 10° E
Cosmos 1862 3.7 08:38:08 41° NW 08:38:08 41° NW 08:41:08 10° N
Cosmos 44 4.1 08:36:21 22° S 08:39:43 56° ESE 08:44:57 10° NNE
H-2A R/B 1.9 08:35:08 10° N 08:40:18 81° WNW 08:43:06 27° SSW
CSL-04 DEB 4.0 08:37:17 10° N 08:41:01 83° WNW 08:41:58 49° SSW
Ariane H10 3.6 08:39:24 34° WSW 08:41:07 43° SSW 08:44:24 10° ESE
Cosmos 1271 Rocket 4.1 08:42:57 22° NW 08:42:57 22° NW 08:44:43 10° NNW
Cosmos 1603 4.4 08:38:20 10° NW 08:42:49 32° W 08:42:49 32° W
H-2A R/B 3.2 08:45:30 16° NNW 08:46:22 19° N 08:49:45 10° NE
Cosmos 1939 Rocket 2.9 08:43:46 10° NNE 08:47:39 70° E 08:50:14 20° S
Cosmos 192 4.4 08:44:54 19° S 08:48:25 74° ESE 08:53:17 10° NNE
Cosmos 2084 3.4 08:47:19 37° SW 08:49:01 78° WNW 08:53:15 10° NNE
Cosmos 2151 3.7 08:45:22 10° S 08:49:23 52° E 08:53:23 10° NNE
Meteor 2-15 4.4 08:48:18 20° SSW 08:52:34 60° W 08:58:31 10° N
NOSS 3-1 (C) 2.9 08:52:37 33° SW 08:54:23 53° WNW 08:58:57 10° NNE
ARIANE 5 R/B 2.3 08:53:53 35° SW 08:55:01 51° S 09:05:31 10° E
Stardust Del rocket 4.0 08:53:13 18° WNW 08:56:10 77° NNE 09:03:49 10° ESE
Cosmos 1802 Rocket 4.0 08:51:30 10° S 08:57:51 79° W 09:04:16 10° N
Cosmos 1484 Rocket 3.0 08:57:48 10° N 09:01:24 45° WNW 09:03:02 27° SW
ARIANE 5 R/B 3.5 08:59:20 10° NNE 09:04:05 45° ESE 09:08:51 10° S
Lacrosse 5 3.2 09:02:20 19° W 09:04:06 23° WNW 09:08:03 10° N
ARIANE 5 R/B 4.4 09:00:35 19° WSW 09:06:26 31° SSW 09:09:52 10° SE
Meteor 2-14 Rocket 4.3 09:00:48 10° N 09:06:51 77° W 09:12:55 10° S
Cosmos 2173 Rocket 4.5 09:04:29 16° SSW 09:09:09 39° W 09:14:55 10° NNW
NOSS 3-1 (A) 2.9 09:07:13 11° SSW 09:11:42 69° ESE 09:16:23 10° NNE
Cosmos 1076 Rocket 3.7 09:10:44 10° S 09:14:55 73° E 09:19:06 10° N
USA 305 2.0 09:13:49 20° SW 09:16:02 74° WNW 09:18:58 10° NNE
Meteor 2-21 4.4 09:10:16 10° N 09:16:18 77° W 09:22:24 10° S
Cosmos-2242 3.9 09:14:32 10° NNW 09:18:10 28° W 09:21:47 10° SSW
USA 290 3.0 09:17:22 20° SW 09:19:00 32° WNW 09:21:55 10° N
ATLAS 3B R/B 2.9 09:13:11 10° SSW 09:19:39 74° ESE 09:26:40 10° NNE
Ariane H10+ 3.4 09:17:30 14° SW 09:20:50 34° SSE 09:35:55 10° E
Meteor 1-26 Rocket 4.1 09:18:06 10° N 09:23:28 83° W 09:28:54 10° S
Cosmos 1953 Rocket 3.9 09:20:12 10° SSW 09:24:17 44° W 09:28:24 10° NNW
Cosmos 1782 4.0 09:21:50 10° NW 09:24:41 20° W 09:27:16 11° SW
GPS 2-14 Rocket1 4.5 09:22:52 10° NW 09:24:47 16° N 09:26:42 10° NNE
GPS 2-15 Rocket1 3.4 09:21:23 11° W 09:25:44 46° SSW 09:30:15 10° SE
FUSE 4.4 09:22:17 10° WNW 09:27:37 64° NNE 09:32:55 10° ESE
GOES 2 Rocket 4.0 09:24:13 10° NW 09:28:51 61° NNE 09:34:46 10° ESE
ISS -2.7 09:27:28 14° WSW 09:29:51 31° NW 09:32:52 10° NNE
Cosmos 1833 Rocket 3.7 09:25:19 10° N 09:30:47 52° ENE 09:36:15 10° SSE
Ariane H10 3.8 09:27:00 11° WSW 09:32:31 23° S 09:35:22 10° SE
H-2A R/B 3.4 09:35:55 10° NNW 09:38:39 26° WNW 09:41:24 10° SW
Cosmos 1943 Rocket 3.4 09:35:29 10° SW 09:39:58 24° WNW 09:44:28 10° NNW
Meteor 2-21 Rocket 4.5 09:37:22 10° NNW 09:43:19 62° W 09:49:19 10° S
ARIANE 5 R/B 4.0 09:40:33 10° SW 09:43:29 37° SSE 09:54:46 10° E
CZ-3 R/B 4.2 09:35:14 10° W 09:52:31 21° SW 10:00:12 10° S
